Flora, IL

4:17 PM CDT on April 27, 2017 (GMT -0500)
Flora Municipal

Weather History for KFOA - December, 2013

Change the Weather History Date:

Thursday, December 19, 2013

  Actual Average (KSLO) Record (KSLO)
Temperature  
Mean Temperature 44 °F -  
Max Temperature 54 °F 42 °F 64 °F (1976)
Min Temperature 33 °F 24 °F -8 °F (1963)
Degree Days  
Heating Degree Days 22    
Moisture  
Dew Point 39 °F    
Average Humidity 79    
Maximum Humidity 88    
Minimum Humidity 70    
Precipitation  
Precipitation 0.00 in - - ()
Sea Level Pressure  
Sea Level Pressure 29.96 in    
Wind  
Wind Speed 10 mph (South)    
Max Wind Speed 22 mph    
Max Gust Speed 28 mph    
Visibility 10 miles    
Events      
Averages and records for this station are not official NWS values.
T = Trace of Precipitation, MM = Missing Value Source: NWS Daily Summary

Daily Weather History Graph

Daily Weather History Graph

Search for Another Location

Airport or City:

Trip Planner

Search our weather history database for the weather conditions in past years. The results will help you decide how hot, cold, wet, or windy it might be!

Date:

Astronomy

Dec. 19, 2013 Rise Set
Actual Time 7:07 AM CST 4:35 PM CST
Civil Twilight 6:37 AM CST 5:04 PM CST
Nautical Twilight 6:03 AM CST 5:38 PM CST
Astronomical Twilight 5:31 AM CST 6:10 PM CST
Moon 6:59 PM CST (12/19) 8:26 AM CST (12/19)
Length of Visible Light 10h 27m
Length of Day
9h 27m
Waning Gibbous, 95% of the Moon is Illuminated
Dec 19
Waning Gibbous
Dec 25
Last Quarter
Jan 1
New
Jan 7
First Quarter
Jan 15
Full

Hourly Weather History & Observations

Time (CST) Temp. Windchill Dew Point Humidity Pressure Visibility Wind Dir Wind Speed Gust Speed Precip Events Conditions
12:15 AM 33.1 °F 27.7 °F 27.5 °F 80% 30.01 in 10.0 mi SSE 5.8 mph - N/A   Clear
12:35 AM 33.4 °F 29.1 °F 27.5 °F 79% 30.01 in 10.0 mi SSE 4.6 mph - N/A   Clear
12:55 AM 35.1 °F 27.9 °F 28.8 °F 78% 30.01 in 10.0 mi South 9.2 mph - N/A   Clear
1:15 AM 37.0 °F 30.4 °F 30.0 °F 76% 30.00 in 10.0 mi South 9.2 mph - N/A   Clear
1:35 AM 37.9 °F 32.1 °F 30.2 °F 74% 30.00 in 10.0 mi South 8.1 mph - N/A   Clear
1:55 AM 37.4 °F 30.3 °F 30.4 °F 76% 30.00 in 10.0 mi South 10.4 mph - N/A   Clear
2:15 AM 37.8 °F 30.7 °F 30.9 °F 76% 30.00 in 10.0 mi South 10.4 mph - N/A   Clear
2:35 AM 37.6 °F 31.0 °F 31.1 °F 77% 30.01 in 10.0 mi South 9.2 mph - N/A   Clear
2:55 AM 37.4 °F 30.3 °F 31.1 °F 78% 30.02 in 10.0 mi South 10.4 mph - N/A   Clear
3:15 AM 36.9 °F 30.7 °F 31.1 °F 80% 30.02 in 10.0 mi South 8.1 mph - N/A   Clear
3:35 AM 35.4 °F 29.0 °F 30.7 °F 83% 30.02 in 10.0 mi South 8.1 mph - N/A   Clear
3:55 AM 33.4 °F 27.3 °F 30.0 °F 87% 30.02 in 10.0 mi South 6.9 mph - N/A   Clear
4:15 AM 34.0 °F 28.0 °F 30.7 °F 88% 30.02 in 10.0 mi South 6.9 mph - N/A   Clear
4:35 AM 33.6 °F 26.2 °F 30.4 °F 88% 30.01 in 10.0 mi South 9.2 mph - N/A   Clear
4:55 AM 35.6 °F 28.6 °F 32.0 °F 87% 30.01 in 10.0 mi South 9.2 mph - N/A   Clear
5:15 AM 37.0 °F 30.4 °F 32.2 °F 83% 30.00 in 10.0 mi South 9.2 mph - N/A   Clear
5:35 AM 37.0 °F 30.4 °F 32.2 °F 83% 30.00 in 10.0 mi South 9.2 mph - N/A   Clear
5:55 AM 36.7 °F 29.4 °F 32.4 °F 84% 29.99 in 10.0 mi South 10.4 mph - N/A   Clear
6:15 AM 37.0 °F 30.4 °F 32.5 °F 84% 29.99 in 10.0 mi South 9.2 mph - N/A   Clear
6:35 AM 37.0 °F 30.4 °F 32.9 °F 85% 29.99 in 10.0 mi South 9.2 mph - N/A   Clear
6:55 AM 37.0 °F 29.8 °F 32.9 °F 85% 29.99 in 10.0 mi South 10.4 mph - N/A   Clear
7:35 AM 37.4 °F 30.3 °F 33.1 °F 84% 30.00 in 10.0 mi South 10.4 mph - N/A   Clear
7:55 AM 37.9 °F 31.5 °F 33.4 °F 84% 30.00 in 10.0 mi South 9.2 mph - N/A   Clear
8:15 AM 37.4 °F 30.8 °F 33.4 °F 86% 30.00 in 10.0 mi South 9.2 mph - N/A   Clear
8:35 AM 37.9 °F 31.5 °F 33.8 °F 85% 30.00 in 10.0 mi South 9.2 mph - N/A   Clear
8:55 AM 38.8 °F 32.1 °F 34.5 °F 84% 30.01 in 10.0 mi South 10.4 mph - N/A   Clear
9:15 AM 39.6 °F 33.5 °F 34.7 °F 83% 30.01 in 10.0 mi South 9.2 mph - N/A   Clear
9:35 AM 44.2 °F 37.6 °F 37.4 °F 77% 30.01 in 10.0 mi South 13.8 mph - N/A   Clear
9:55 AM 45.7 °F 39.5 °F 38.1 °F 75% 30.01 in 10.0 mi SSW 13.8 mph 19.6 mph N/A   Clear
10:15 AM 46.4 °F 41.1 °F 38.7 °F 74% 30.01 in 10.0 mi SSW 11.5 mph - N/A   Clear
10:35 AM 47.5 °F - 39.4 °F 73% 30.01 in 10.0 mi SSW 16.1 mph 20.7 mph N/A   Clear
10:55 AM 47.5 °F - 39.6 °F 74% 30.00 in 10.0 mi SSW 12.7 mph - N/A   Clear
11:15 AM 48.6 °F - 40.3 °F 73% 29.99 in 10.0 mi South 12.7 mph - N/A   Clear
11:35 AM 48.9 °F - 40.8 °F 74% 29.99 in 10.0 mi South 12.7 mph - N/A   Clear
11:55 AM 50.4 °F - 41.7 °F 72% 29.98 in 10.0 mi SSW 13.8 mph 18.4 mph N/A   Clear
12:15 PM 50.2 °F - 42.1 °F 74% 29.96 in 10.0 mi South 13.8 mph - N/A   Clear
12:35 PM 52.9 °F - 43.9 °F 71% 29.96 in 10.0 mi South 15.0 mph 19.6 mph N/A   Clear
12:55 PM 54.0 °F - 44.2 °F 70% 29.95 in 10.0 mi SSW 17.3 mph 24.2 mph N/A   Clear
1:15 PM 53.8 °F - 44.8 °F 72% 29.95 in 10.0 mi SSW 16.1 mph 24.2 mph N/A   Clear
1:55 PM 54.3 °F - 45.3 °F 72% 29.94 in 10.0 mi SSW 21.9 mph 25.3 mph N/A   Clear
2:15 PM 53.8 °F - 45.3 °F 73% 29.94 in 10.0 mi SSW 19.6 mph 26.5 mph N/A   Clear
2:35 PM 54.1 °F - 45.5 °F 73% 29.93 in 10.0 mi SSW 18.4 mph 26.5 mph N/A   Clear
2:55 PM 53.6 °F - 45.5 °F 74% 29.93 in 10.0 mi SSW 21.9 mph 27.6 mph N/A   Clear
3:15 PM 53.1 °F - 45.5 °F 75% 29.92 in 10.0 mi SSW 13.8 mph 26.5 mph N/A   Clear
3:35 PM 52.9 °F - 45.5 °F 76% 29.92 in 10.0 mi South 18.4 mph 25.3 mph N/A   Clear
3:55 PM 52.7 °F - 46.0 °F 78% 29.92 in 10.0 mi South 18.4 mph 24.2 mph N/A   Clear
4:15 PM 52.0 °F - 45.5 °F 79% 29.92 in 10.0 mi South 13.8 mph 20.7 mph N/A   Clear
4:35 PM 51.1 °F - 45.3 °F 81% 29.92 in 10.0 mi South 12.7 mph 17.3 mph N/A   Clear
4:55 PM 51.1 °F - 45.1 °F 80% 29.91 in 10.0 mi South 10.4 mph - N/A   Clear
5:15 PM 51.1 °F - 45.5 °F 81% 29.91 in 10.0 mi South 10.4 mph - N/A   Clear
5:35 PM 50.4 °F - 44.8 °F 81% 29.90 in 10.0 mi South 10.4 mph - N/A   Clear
5:55 PM 50.0 °F - 44.6 °F 82% 29.90 in 10.0 mi South 12.7 mph - N/A   Clear
6:15 PM 51.1 °F - 45.3 °F 81% 29.90 in 10.0 mi South 11.5 mph - N/A   Clear
6:35 PM 51.1 °F - 45.1 °F 80% 29.90 in 10.0 mi South 10.4 mph - N/A   Clear
6:55 PM 51.1 °F - 45.1 °F 80% 29.90 in 10.0 mi South 10.4 mph - N/A   Clear
7:15 PM 50.4 °F - 44.8 °F 81% 29.90 in 10.0 mi South 6.9 mph - N/A   Clear
7:35 PM 51.1 °F - 45.1 °F 80% 29.90 in 10.0 mi South 11.5 mph - N/A   Clear
7:55 PM 51.8 °F - 45.1 °F 78% 29.90 in 10.0 mi South 13.8 mph - N/A   Clear
8:15 PM 52.3 °F - 45.7 °F 78% 29.90 in 10.0 mi South 12.7 mph - N/A   Clear
8:35 PM 52.7 °F - 46.0 °F 78% 29.90 in 10.0 mi South 13.8 mph - N/A   Clear
8:55 PM 52.2 °F - 45.9 °F 79% 29.89 in 10.0 mi South 11.5 mph - N/A   Clear
9:15 PM 52.0 °F - 46.0 °F 80% 29.89 in 10.0 mi South 10.4 mph - N/A   Clear
9:35 PM 51.3 °F - 46.0 °F 82% 29.90 in 10.0 mi South 10.4 mph - N/A   Clear
9:55 PM 51.8 °F - 46.4 °F 82% 29.88 in 10.0 mi South 12.7 mph - N/A   Clear
10:15 PM 52.0 °F - 46.4 °F 81% 29.88 in 10.0 mi South 10.4 mph - N/A   Clear
10:35 PM 51.6 °F - 46.4 °F 82% 29.88 in 10.0 mi South 10.4 mph - N/A   Clear
10:55 PM 52.0 °F - 46.8 °F 82% 29.88 in 10.0 mi South 9.2 mph - N/A   Clear
11:15 PM 52.0 °F - 46.9 °F 83% 29.88 in 10.0 mi South 10.4 mph - N/A   Clear
11:35 PM 52.0 °F - 47.1 °F 83% 29.88 in 10.0 mi South 10.4 mph - N/A   Clear
11:55 PM 52.0 °F - 47.3 °F 84% 29.87 in 10.0 mi South 10.4 mph - N/A   Clear